Location: Newark
(49.8969°N, 3.3422°E)
Time: 14:09:55
(UTC+00:00)

Envisat - Pass Details

Date: 06 December 2019
Orbit: 764 x 766 km, 98.1° (Epoch: 18 January)

Event Time Altitude Azimuth Distance (km) Brightness Sun altitude
Rises 05:27:02 0° 26° (NNE) 3,246 6.4 -18.6°
Reaches altitude 10° 05:30:00 10° 43° (NE) 2,313 5.9 -18.1°
Maximum altitude 05:33:39 19° 89° (E) 1,744 5.8 -17.6°
Drops below altitude 10° 05:37:16 10° 135° (SE) 2,300 6.4 -17.0°
Sets 05:40:11 0° 153° (SSE) 3,220 6.9 -16.6°
